Wind_Speed
12 12 11 11 11 11 11 10 10 10 10 10 11 11 12 12 12 12 12 13 13 14 14 15 15 15 15 16 16 17 18 19 19 19 19 20 21 21
15 14 14 14 14 14 14 13 13 13 14 14 14 14 15 15 16 16 17 17 17 17 18 18 18 19 19 19 20 20 21 21 21 21 22 22 22 22
17 17 16 16 17 17 17 17 17 16 16 17 17 18 18 19 19 20 20 21 21 21 21 22 22 22 23 22 23 23 24 24 24 24 24 24 25 25
19 19 19 19 19 19 19 20 20 20 20 20 21 21 22 22 22 23 23 24 24 24 25 25 25 26 26 26 27 27 27 27 28 28 28 28 28 28
21 21 21 22 22 22 22 22 23 23 23 24 24 25 25 26 26 26 26 27 27 28 28 29 29 29 30 30 31 31 31 31 31 32 32 31 31 31
22 23 24 24 24 24 25 25 25 25 26 27 28 28 29 30 30 30 30 31 31 32 32 32 32 33 33 34 34 35 35 35 35 35 35 35 35 35
23 23 24 25 25 26 26 27 27 28 29 30 30 30 31 32 32 32 33 33 33 34 35 35 36 36 36 37 38 38 38 39 39 39 39 39 38 38
23 23 24 25 26 26 27 29 30 30 31 32 32 32 33 34 35 35 35 35 35 37 38 38 39 40 41 41 42 42 42 42 42 42 42 42 42 42
26 25 26 26 27 28 29 30 31 31 32 33 34 35 35 36 37 37 38 38 38 39 41 41 43 43 44 44 45 46 46 46 46 46 46 46 46 46
27 27 27 28 29 30 31 32 33 34 35 36 37 37 38 38 39 39 40 41 41 42 44 44 44 45 46 46 48 48 48 49 49 49 49 49 50 50
28 29 30 30 31 32 33 35 36 37 37 38 39 39 40 41 41 42 43 44 44 45 46 47 46 46 46 46 48 49 50 50 51 52 52 52 52 52
30 31 32 33 34 35 36 38 39 39 39 40 40 41 42 43 44 45 46 46 47 47 48 49 49 50 49 49 50 51 51 52 52 53 53 53 53 53
32 34 34 35 36 37 38 39 39 39 40 41 42 43 44 45 47 47 48 49 49 50 51 52 52 52 53 52 52 53 54 55 55 55 55 55 55 55
35 36 37 38 39 39 39 40 41 41 42 44 45 46 47 48 48 49 50 51 52 53 54 54 54 53 53 53 53 54 55 55 56 56 56 56 56 55
36 37 38 38 39 39 39 40 43 44 45 46 47 48 49 50 50 51 52 53 54 54 55 55 55 56 56 55 54 54 54 54 55 55 55 55 55 55
36 38 38 39 39 40 42 44 45 47 49 50 51 51 52 53 53 54 55 55 55 55 56 56 56 56 56 55 54 54 54 53 53 54 54 54 55 54
38 39 39 41 42 44 45 46 48 49 51 52 53 53 54 55 55 56 56 56 55 55 54 55 55 54 54 53 53 53 52 52 53 53 53 52 52 53
39 40 41 43 45 46 48 49 51 52 53 53 54 54 54 54 54 54 54 53 53 52 52 53 53 53 53 53 54 54 53 53 53 52 52 52 52 53
41 42 44 46 47 49 50 51 52 52 53 53 53 53 53 52 51 51 51 50 50 50 51 51 51 52 52 51 52 53 53 52 52 52 52 53 52 51
44 45 47 48 49 50 51 51 51 51 51 51 51 51 50 49 49 48 47 47 47 47 48 48 48 48 48 48 47 48 49 48 48 49 50 50 50 50
46 47 48 49 50 51 52 51 51 50 50 49 49 49 48 47 46 46 45 45 45 45 44 44 44 44 44 44 44 43 44 45 44 44 44 44 44 44
48 49 49 50 50 50 50 49 49 48 47 47 46 45 44 44 43 43 42 43 43 43 42 41 41 40 40 40 39 39 39 40 41 41 41 41 40 40
47 47 47 47 46 46 45 44 44 43 43 43 42 41 41 40 40 40 40 40 39 38 38 37 37 37 36 35 34 34 34 35 35 35 35 37 37 37
Wind_Direction
241 244 247 251 256 261 266 270 273 276 279 280 281 282 283 284 284 285 284 282 281 279 278 277 277 278 276 275 274 272 269 267 266 265 263 263 263 263
247 252 255 260 264 266 268 271 273 275 278 279 281 282 283 283 283 283 282 280 280 279 277 276 275 275 275 276 276 275 273 271 269 268 266 266 265 264
250 255 259 263 267 269 270 271 273 274 276 278 279 282 283 282 282 283 282 281 279 279 279 278 276 275 274 274 274 274 273 272 271 269 269 268 266 264
254 257 261 265 268 270 272 274 275 275 277 278 280 281 282 283 283 282 281 280 279 278 278 278 277 276 274 273 273 273 272 271 271 270 270 269 267 266
258 260 263 266 270 272 274 275 277 278 279 279 280 281 282 282 282 280 279 279 278 277 277 277 277 276 275 274 273 273 272 271 270 270 269 269 268 267
260 262 263 267 270 272 273 274 276 279 281 282 282 282 282 283 281 279 278 278 277 277 277 277 277 276 275 274 273 272 271 271 270 269 268 268 267 266
262 264 265 267 269 272 274 275 276 278 280 282 283 283 282 283 282 280 279 279 279 279 278 278 277 276 275 274 274 273 271 270 270 269 268 267 267 266
263 265 266 268 270 273 275 277 278 279 280 281 282 282 282 282 282 281 280 279 279 278 277 277 277 277 276 274 274 273 272 271 270 269 269 267 266 266
266 267 268 270 272 275 277 278 279 280 282 283 284 284 284 283 282 281 280 279 278 277 276 276 276 276 274 274 273 272 271 270 270 269 267 266 265 265
269 270 270 271 273 275 278 279 280 281 282 282 283 284 284 283 283 282 281 280 279 278 278 278 276 276 275 273 272 271 270 270 270 269 268 267 266 265
271 273 273 273 275 276 278 280 281 281 281 282 282 282 282 282 282 282 281 281 279 279 279 279 277 276 275 275 273 272 271 270 270 269 268 267 266 265
273 275 277 278 279 280 280 281 281 281 281 282 282 283 283 283 283 283 282 281 280 279 279 279 278 277 276 275 273 272 270 269 269 269 268 267 266 266
275 276 278 279 280 280 280 281 282 282 282 283 284 284 284 283 283 283 283 281 281 280 279 279 279 277 276 275 273 272 271 269 268 267 266 266 266 266
277 277 279 280 281 280 281 281 281 281 282 283 284 284 284 284 284 283 283 282 281 281 280 279 279 278 277 276 275 273 272 270 269 267 266 265 266 266
278 279 279 280 281 282 282 282 283 284 284 285 286 286 285 284 283 282 282 282 281 281 281 280 280 279 279 278 276 274 272 271 270 269 267 266 265 265
281 282 282 282 282 283 284 284 285 285 285 286 286 286 284 283 282 282 282 281 281 280 280 280 280 279 279 278 277 275 274 271 269 269 268 267 266 266
284 284 285 285 287 287 287 287 287 287 287 287 287 286 285 284 283 282 282 281 280 280 279 279 279 279 278 276 275 274 274 272 270 268 267 266 266 265
286 286 287 287 288 288 288 288 288 288 288 288 288 287 287 286 285 285 284 283 282 281 280 279 278 278 278 278 277 275 274 273 271 269 268 268 266 265
288 288 289 289 289 289 289 289 289 289 289 288 288 288 287 286 286 286 285 285 284 283 283 282 280 279 279 279 279 278 276 274 272 270 269 268 267 266
290 290 291 291 291 290 290 290 290 289 289 289 289 288 288 287 287 287 286 286 286 286 286 285 284 283 282 281 280 278 277 276 274 271 270 269 269 268
292 292 292 292 292 292 291 290 290 290 290 290 290 290 289 289 289 289 289 288 288 289 288 287 286 285 284 284 282 279 277 276 275 273 270 269 268 267
294 294 294 293 293 293 292 292 292 292 292 292 292 291 291 291 291 291 291 290 290 290 289 288 287 286 286 287 285 282 278 277 276 275 273 271 270 268
296 295 295 294 294 294 294 294 294 295 295 295 294 294 294 293 293 293 293 293 293 292 291 291 290 288 288 288 287 284 281 279 278 277 276 276 275 273
Height
5879 5879 5880 5880 5881 5881 5881 5881 5880 5879 5879 5878 5877 5877 5876 5875 5874 5873 5872 5871 5870 5869 5868 5867 5866 5865 5864 5863 5862 5861 5861 5860 5859 5859 5858 5858 5857 5857
5876 5876 5877 5877 5877 5877 5877 5877 5877 5876 5875 5874 5874 5873 5872 5871 5870 5869 5868 5867 5866 5865 5864 5862 5861 5860 5859 5858 5858 5857 5856 5855 5854 5854 5853 5852 5852 5851
5872 5872 5873 5873 5873 5873 5873 5872 5872 5872 5871 5870 5869 5868 5867 5866 5865 5864 5863 5862 5860 5859 5858 5857 5856 5855 5854 5853 5852 5851 5850 5849 5848 5848 5847 5846 5846 5845
5867 5868 5868 5868 5868 5868 5867 5867 5866 5866 5866 5865 5864 5863 5861 5860 5859 5858 5856 5855 5854 5853 5851 5850 5849 5848 5847 5846 5845 5844 5843 5842 5841 5840 5840 5839 5838 5838
5862 5862 5863 5863 5862 5862 5862 5861 5860 5859 5859 5858 5857 5856 5855 5853 5852 5851 5849 5848 5847 5845 5844 5843 5841 5840 5839 5838 5837 5835 5834 5833 5833 5832 5831 5831 5830 5829
5856 5857 5857 5856 5856 5856 5855 5854 5853 5852 5852 5851 5849 5848 5847 5845 5844 5842 5841 5839 5838 5837 5835 5834 5832 5831 5830 5829 5827 5826 5825 5824 5823 5822 5822 5821 5820 5820
5850 5850 5850 5850 5850 5849 5848 5847 5846 5845 5844 5842 5841 5839 5838 5836 5834 5833 5831 5830 5829 5827 5826 5824 5823 5821 5820 5818 5817 5816 5814 5813 5812 5811 5811 5810 5809 5809
5844 5844 5844 5843 5842 5842 5841 5840 5839 5837 5835 5834 5832 5830 5828 5826 5824 5823 5821 5820 5819 5817 5814 5813 5811 5810 5808 5807 5805 5804 5802 5801 5800 5800 5799 5798 5798 5797
5838 5837 5837 5836 5835 5834 5833 5832 5830 5828 5827 5825 5823 5821 5818 5816 5814 5812 5810 5808 5807 5805 5803 5802 5799 5797 5795 5793 5792 5790 5789 5788 5787 5786 5785 5785 5784 5784
5831 5831 5830 5828 5827 5826 5824 5823 5821 5819 5817 5815 5813 5810 5808 5805 5803 5801 5799 5797 5795 5792 5789 5788 5786 5784 5782 5779 5777 5776 5774 5773 5772 5771 5770 5770 5770 5770
5824 5823 5821 5820 5819 5817 5815 5813 5811 5809 5806 5804 5802 5799 5796 5793 5791 5788 5786 5784 5782 5779 5776 5774 5772 5770 5768 5766 5763 5760 5759 5757 5756 5755 5755 5754 5754 5754
5815 5814 5812 5811 5809 5807 5805 5803 5800 5798 5795 5793 5790 5787 5784 5781 5778 5775 5772 5769 5767 5765 5761 5758 5756 5754 5753 5751 5748 5745 5743 5741 5740 5739 5738 5737 5737 5737
5806 5805 5803 5801 5798 5796 5794 5791 5789 5786 5783 5781 5778 5774 5771 5768 5764 5761 5757 5754 5751 5749 5746 5743 5740 5737 5735 5735 5732 5729 5726 5724 5723 5722 5721 5720 5720 5720
5796 5794 5792 5790 5787 5785 5782 5780 5777 5774 5771 5768 5764 5761 5757 5754 5750 5746 5743 5739 5735 5732 5729 5726 5723 5721 5718 5716 5715 5712 5709 5707 5705 5704 5703 5703 5703 5703
5786 5784 5781 5778 5776 5773 5770 5767 5764 5761 5757 5754 5750 5747 5743 5739 5735 5731 5727 5723 5719 5715 5712 5708 5705 5702 5700 5698 5696 5694 5691 5689 5687 5686 5686 5686 5685 5685
5775 5772 5770 5767 5764 5761 5758 5754 5751 5747 5743 5739 5735 5731 5727 5723 5719 5714 5711 5707 5702 5698 5694 5690 5687 5684 5681 5678 5676 5674 5672 5671 5670 5668 5668 5668 5668 5668
5764 5761 5758 5755 5752 5748 5744 5740 5736 5732 5728 5723 5719 5715 5710 5705 5701 5697 5692 5688 5684 5681 5677 5673 5669 5666 5663 5660 5658 5655 5654 5653 5651 5650 5650 5651 5651 5651
5753 5749 5745 5742 5738 5734 5729 5725 5720 5716 5711 5706 5701 5697 5692 5688 5683 5679 5674 5671 5667 5663 5659 5656 5653 5650 5646 5643 5640 5638 5636 5634 5633 5632 5632 5633 5635 5634
5740 5736 5732 5728 5723 5719 5714 5709 5704 5699 5694 5689 5685 5680 5675 5671 5666 5662 5658 5654 5650 5646 5642 5639 5636 5633 5630 5628 5623 5618 5617 5616 5616 5616 5615 5616 5617 5617
5727 5722 5718 5713 5708 5703 5698 5693 5688 5683 5678 5673 5668 5663 5659 5655 5650 5646 5642 5638 5635 5631 5627 5623 5619 5616 5613 5611 5608 5604 5600 5599 5599 5599 5599 5599 5599 5600
5713 5708 5703 5698 5692 5687 5682 5677 5672 5667 5662 5657 5653 5648 5644 5639 5635 5631 5628 5624 5620 5616 5612 5608 5604 5601 5597 5595 5592 5590 5587 5584 5583 5583 5583 5583 5584 5584
5698 5693 5688 5682 5677 5672 5666 5661 5657 5652 5647 5643 5638 5634 5630 5626 5622 5618 5614 5610 5606 5602 5598 5594 5591 5587 5584 5581 5578 5576 5574 5572 5570 5570 5569 5569 5569 5570
5684 5678 5673 5668 5662 5657 5652 5648 5643 5638 5634 5629 5625 5621 5617 5613 5609 5605 5601 5597 5593 5590 5586 5582 5579 5575 5572 5569 5567 5564 5562 5561 5560 5559 5558 5556 5556 5557